Station Historical Data
Daily Summary for June 20, 2017 Units:  Metric    English   Both
« Previous Day
Next Day »
Daily Weekly Monthly Yearly Custom
  High: Low: Average:
Temperature: 22.3 °C 15.6 °C 19.5 °C
Dew Point: 16.6 °C 12.4 °C 14.5 °C
Humidity: 87% 64% 73%
Wind Speed: 30.6km/h 0km/h 11.6km/h
Wind Gust: 46.7km/h - -
Wind- - WSW
Pressure: 1013.4 hPa 1007 hPa -
Precipitation: 0 mm    
Historical Graphs
 
 
Tabular Data for June 20, 2017
Time Temperature Dew Point Pressure Wind Wind Speed Wind Gust Humidity Rainfall Rate (Hourly)
00:04 19.2 °C 14.9 °C 1008.4 hPa SSW 11.3 km/h 16.1 km/h 76% 0 mm
00:09 19.2 °C 15.1 °C 1008.7 hPa SW 11.3 km/h 19.3 km/h 77% 0 mm
00:14 19.2 °C 15.1 °C 1008.4 hPa SW 9.7 km/h 19.3 km/h 77% 0 mm
00:19 19.2 °C 15.1 °C 1008.4 hPa SW 8 km/h 17.7 km/h 77% 0 mm
00:24 19.1 °C 15.2 °C 1008.4 hPa SW 8 km/h 17.7 km/h 78% 0 mm
00:29 19.1 °C 15.2 °C 1008.4 hPa WSW 8 km/h 16.1 km/h 78% 0 mm
00:34 19.1 °C 15.4 °C 1008.4 hPa WSW 17.7 km/h 17.7 km/h 79% 0 mm
00:39 19.1 °C 15.4 °C 1008 hPa SSW 6.4 km/h 17.7 km/h 79% 0 mm
00:44 19.2 °C 15.6 °C 1008.4 hPa WSW 8 km/h 17.7 km/h 80% 0 mm
00:49 19.2 °C 15.7 °C 1008.4 hPa WSW 16.1 km/h 20.9 km/h 80% 0 mm
00:54 19.2 °C 15.7 °C 1008.4 hPa WSW 12.9 km/h 27.4 km/h 80% 0 mm
00:59 19.2 °C 15.5 °C 1008 hPa SW 16.1 km/h 22.5 km/h 79% 0 mm
01:04 19.2 °C 15.5 °C 1008 hPa SW 8 km/h 24.1 km/h 79% 0 mm
01:09 19.2 °C 15.4 °C 1008 hPa SW 9.7 km/h 16.1 km/h 79% 0 mm
01:14 19.2 °C 15.4 °C 1008 hPa WSW 9.7 km/h 25.7 km/h 79% 0 mm
01:19 19.2 °C 15.4 °C 1008 hPa WSW 9.7 km/h 25.7 km/h 79% 0 mm
01:24 19.1 °C 15.4 °C 1007.7 hPa WSW 9.7 km/h 20.9 km/h 79% 0 mm
01:29 19.1 °C 15.4 °C 1007.7 hPa WSW 11.3 km/h 24.1 km/h 79% 0 mm
01:34 19.1 °C 15.3 °C 1008 hPa SW 9.7 km/h 24.1 km/h 79% 0 mm
01:39 18.9 °C 15.2 °C 1008 hPa SW 9.7 km/h 25.7 km/h 79% 0 mm
01:44 18.9 °C 14.9 °C 1007.7 hPa WSW 6.4 km/h 24.1 km/h 78% 0 mm
01:49 18.8 °C 14.9 °C 1007.7 hPa WSW 16.1 km/h 19.3 km/h 78% 0 mm
01:54 18.8 °C 14.9 °C 1008 hPa West 16.1 km/h 27.4 km/h 78% 0 mm
01:59 18.8 °C 14.8 °C 1007.7 hPa SW 6.4 km/h 20.9 km/h 78% 0 mm
02:04 18.8 °C 14.8 °C 1008 hPa West 8 km/h 19.3 km/h 78% 0 mm
02:09 18.8 °C 14.8 °C 1007.7 hPa SW 11.3 km/h 24.1 km/h 78% 0 mm
02:14 18.6 °C 14.7 °C 1008 hPa WSW 9.7 km/h 24.1 km/h 78% 0 mm
02:19 18.6 °C 14.8 °C 1008 hPa West 11.3 km/h 22.5 km/h 79% 0 mm
02:24 18.5 °C 14.8 °C 1008 hPa WSW 8 km/h 22.5 km/h 79% 0 mm
02:29 18.5 °C 14.6 °C 1008 hPa SW 6.4 km/h 19.3 km/h 78% 0 mm
02:34 18.5 °C 14.6 °C 1007.7 hPa NW 8 km/h 25.7 km/h 78% 0 mm
02:39 18.5 °C 14.6 °C 1008 hPa SW 11.3 km/h 25.7 km/h 78% 0 mm
02:44 18.5 °C 14.6 °C 1007.7 hPa SW 9.7 km/h 20.9 km/h 78% 0 mm
02:49 18.5 °C 14.8 °C 1008 hPa WSW 9.7 km/h 22.5 km/h 79% 0 mm
02:54 18.5 °C 14.8 °C 1008 hPa WSW 9.7 km/h 24.1 km/h 79% 0 mm
02:59 18.5 °C 14.6 °C 1007.7 hPa SW 11.3 km/h 24.1 km/h 78% 0 mm
03:04 18.6 °C 14.7 °C 1007.7 hPa SW 12.9 km/h 29 km/h 78% 0 mm
03:09 18.6 °C 14.7 °C 1007.7 hPa WSW 8 km/h 25.7 km/h 78% 0 mm
03:14 18.6 °C 14.7 °C 1007.3 hPa WSW 12.9 km/h 19.3 km/h 78% 0 mm
03:19 18.6 °C 14.7 °C 1007.3 hPa WSW 6.4 km/h 19.3 km/h 78% 0 mm
03:24 18.6 °C 14.7 °C 1007 hPa WSW 6.4 km/h 24.1 km/h 78% 0 mm
03:29 18.4 °C 14.7 °C 1007 hPa SSW 6.4 km/h 16.1 km/h 79% 0 mm
03:34 18.3 °C 14.6 °C 1007 hPa WSW 3.2 km/h 16.1 km/h 79% 0 mm
03:39 18.2 °C 14.7 °C 1007 hPa SW 8 km/h 19.3 km/h 80% 0 mm
03:44 18.2 °C 14.7 °C 1007.3 hPa SW 8 km/h 19.3 km/h 80% 0 mm
03:49 18.1 °C 14.8 °C 1007.3 hPa SW 8 km/h 17.7 km/h 81% 0 mm
03:54 18 °C 14.7 °C 1007.3 hPa SW 8 km/h 9.7 km/h 81% 0 mm
03:59 17.9 °C 14.4 °C 1007.3 hPa SSW 8 km/h 14.5 km/h 80% 0 mm
04:04 17.9 °C 14.4 °C 1007.3 hPa WSW 8 km/h 19.3 km/h 80% 0 mm
04:09 17.8 °C 14.3 °C 1007.7 hPa SW 9.7 km/h 19.3 km/h 80% 0 mm
04:14 17.7 °C 14.4 °C 1007.7 hPa SSW 11.3 km/h 19.3 km/h 81% 0 mm
04:19 17.7 °C 14.4 °C 1007.7 hPa WNW 11.3 km/h 16.1 km/h 81% 0 mm
04:24 17.7 °C 14.2 °C 1007.7 hPa WSW 3.2 km/h 19.3 km/h 80% 0 mm
04:29 17.7 °C 14 °C 1008 hPa WSW 16.1 km/h 20.9 km/h 79% 0 mm
04:34 17.7 °C 14 °C 1008 hPa WSW 11.3 km/h 20.9 km/h 79% 0 mm
04:39 17.7 °C 14 °C 1008 hPa WSW 11.3 km/h 24.1 km/h 79% 0 mm
04:44 17.7 °C 14 °C 1008 hPa West 9.7 km/h 24.1 km/h 79% 0 mm
04:49 17.7 °C 14.1 °C 1008 hPa WSW 9.7 km/h 20.9 km/h 79% 0 mm
04:54 17.7 °C 14 °C 1008 hPa WSW 11.3 km/h 32.2 km/h 79% 0 mm
04:59 17.7 °C 14.1 °C 1008 hPa West 12.9 km/h 29 km/h 79% 0 mm
05:04 17.7 °C 14.1 °C 1008 hPa SW 12.9 km/h 29 km/h 79% 0 mm
05:09 17.7 °C 14.1 °C 1008.4 hPa WSW 12.9 km/h 25.7 km/h 79% 0 mm
05:14 17.8 °C 13.9 °C 1008.4 hPa WSW 12.9 km/h 25.7 km/h 78% 0 mm
05:19 17.8 °C 14.1 °C 1008.4 hPa WSW 12.9 km/h 24.1 km/h 79% 0 mm
05:24 17.8 °C 14.1 °C 1008.4 hPa SW 11.3 km/h 24.1 km/h 79% 0 mm
05:29 17.8 °C 14.2 °C 1008.4 hPa WNW 4.8 km/h 16.1 km/h 79% 0 mm
05:34 17.8 °C 14.2 °C 1008.4 hPa West 8 km/h 17.7 km/h 79% 0 mm
05:39 17.8 °C 13.7 °C 1008.4 hPa WSW 12.9 km/h 25.7 km/h 77% 0 mm
05:44 17.7 °C 13.4 °C 1008.4 hPa WSW 9.7 km/h 24.1 km/h 76% 0 mm
05:49 17.7 °C 13.4 °C 1008.7 hPa WSW 4.8 km/h 19.3 km/h 76% 0 mm
05:54 17.7 °C 13.4 °C 1008.7 hPa WNW 14.5 km/h 17.7 km/h 76% 0 mm
05:59 17.7 °C 13.4 °C 1008.7 hPa West 6.4 km/h 17.7 km/h 76% 0 mm
06:04 17.8 °C 13.5 °C 1008.7 hPa WSW 11.3 km/h 27.4 km/h 76% 0 mm
06:09 17.8 °C 13.5 °C 1008.7 hPa WSW 11.3 km/h 27.4 km/h 76% 0 mm
06:14 17.8 °C 13.6 °C 1009 hPa West 11.3 km/h 20.9 km/h 76% 0 mm
06:19 17.8 °C 13.3 °C 1009 hPa West 9.7 km/h 20.9 km/h 75% 0 mm
06:24 17.8 °C 13.3 °C 1009 hPa West 9.7 km/h 16.1 km/h 75% 0 mm
06:29 17.8 °C 13.3 °C 1009.4 hPa WSW 16.1 km/h 19.3 km/h 75% 0 mm
06:34 17.8 °C 13.1 °C 1009.4 hPa West 6.4 km/h 20.9 km/h 74% 0 mm
06:39 17.8 °C 13.1 °C 1009.4 hPa West 11.3 km/h 14.5 km/h 74% 0 mm
06:44 17.8 °C 13.1 °C 1009.4 hPa SW 6.4 km/h 14.5 km/h 74% 0 mm
06:49 17.8 °C 12.9 °C 1009.7 hPa WSW 6.4 km/h 16.1 km/h 73% 0 mm
06:54 17.9 °C 13.2 °C 1009.7 hPa WSW 3.2 km/h 11.3 km/h 74% 0 mm
06:59 17.9 °C 13.2 °C 1009.7 hPa West 6.4 km/h 9.7 km/h 74% 0 mm
07:04 17.9 °C 13.2 °C 1009.7 hPa West 6.4 km/h 16.1 km/h 74% 0 mm
07:09 18 °C 13.3 °C 1009.7 hPa West 8 km/h 16.1 km/h 74% 0 mm
07:14 18.1 °C 13.2 °C 1009.7 hPa West 6.4 km/h 14.5 km/h 73% 0 mm
07:19 18 °C 13.3 °C 1009.7 hPa WSW 6.4 km/h 14.5 km/h 74% 0 mm
07:24 18.1 °C 13.6 °C 1009.7 hPa West 6.4 km/h 11.3 km/h 75% 0 mm
07:29 18.2 °C 13.7 °C 1010 hPa WSW 12.9 km/h 19.3 km/h 75% 0 mm
07:34 18.4 °C 13.9 °C 1010 hPa WSW 8 km/h 19.3 km/h 75% 0 mm
07:39 18.6 °C 14.1 °C 1010 hPa West 9.7 km/h 17.7 km/h 75% 0 mm
07:44 18.7 °C 14.4 °C 1010 hPa WSW 9.7 km/h 20.9 km/h 76% 0 mm
07:49 18.6 °C 14.2 °C 1010 hPa WSW 11.3 km/h 24.1 km/h 76% 0 mm
07:54 18.5 °C 14.4 °C 1010.4 hPa WSW 12.9 km/h 22.5 km/h 77% 0 mm
07:59 18.4 °C 14.6 °C 1010.4 hPa West 6.4 km/h 20.9 km/h 78% 0 mm
08:04 18.5 °C 14.4 °C 1010.4 hPa WSW 12.9 km/h 27.4 km/h 77% 0 mm
08:09 18.9 °C 14.8 °C 1010.7 hPa West 16.1 km/h 20.9 km/h 77% 0 mm
08:14 19.1 °C 14.6 °C 1010.4 hPa SW 6.4 km/h 24.1 km/h 75% 0 mm
08:19 18.8 °C 14.4 °C 1010.4 hPa SW 17.7 km/h 19.3 km/h 76% 0 mm
08:24 18.6 °C 14.4 °C 1010.4 hPa SW 3.2 km/h 17.7 km/h 77% 0 mm
08:29 18.5 °C 14.6 °C 1010.7 hPa WSW 8 km/h 17.7 km/h 78% 0 mm
08:34 18.5 °C 14.6 °C 1010.7 hPa WSW 8 km/h 24.1 km/h 78% 0 mm
08:39 18.5 °C 14.8 °C 1010.7 hPa WSW 9.7 km/h 24.1 km/h 79% 0 mm
08:44 18.7 °C 14.9 °C 1010.7 hPa WSW 8 km/h 20.9 km/h 79% 0 mm
08:49 18.8 °C 14.7 °C 1010.7 hPa WSW 9.7 km/h 14.5 km/h 77% 0 mm
08:54 18.9 °C 14.6 °C 1010.7 hPa West 16.1 km/h 22.5 km/h 76% 0 mm
08:59 18.9 °C 14.4 °C 1011.1 hPa WSW 11.3 km/h 22.5 km/h 75% 0 mm
09:04 18.6 °C 14.1 °C 1011.1 hPa WSW 11.3 km/h 22.5 km/h 75% 0 mm
09:14 18.4 °C 13.9 °C 1011.1 hPa SW 14.5 km/h 24.1 km/h 75% 0 mm
09:19 18.5 °C 14 °C 1011.1 hPa West 6.4 km/h 16.1 km/h 75% 0 mm
09:24 18.6 °C 13.9 °C 1011.1 hPa SW 9.7 km/h 19.3 km/h 74% 0 mm
09:29 18.7 °C 13.7 °C 1011.1 hPa SW 9.7 km/h 24.1 km/h 73% 0 mm
09:34 18.7 °C 13.8 °C 1011.1 hPa WSW 9.7 km/h 17.7 km/h 73% 0 mm
09:39 18.9 °C 14.2 °C 1011.1 hPa West 6.4 km/h 19.3 km/h 74% 0 mm
09:44 19.3 °C 14.1 °C 1011.1 hPa NW 12.9 km/h 24.1 km/h 72% 0 mm
09:49 19.1 °C 13.7 °C 1011.1 hPa SW 17.7 km/h 27.4 km/h 71% 0 mm
09:54 19.1 °C 13.9 °C 1011.1 hPa WSW 12.9 km/h 27.4 km/h 72% 0 mm
09:59 19.1 °C 13.9 °C 1011.1 hPa SW 11.3 km/h 24.1 km/h 72% 0 mm
10:04 19.4 °C 14.5 °C 1011.1 hPa WSW 11.3 km/h 24.1 km/h 73% 0 mm
10:09 19.8 °C 14.6 °C 1011.4 hPa WSW 11.3 km/h 30.6 km/h 72% 0 mm
10:14 20.4 °C 15.2 °C 1011.1 hPa WSW 11.3 km/h 30.6 km/h 72% 0 mm
10:19 20.6 °C 15.3 °C 1011.1 hPa WSW 4.8 km/h 24.1 km/h 72% 0 mm
10:24 21 °C 15.3 °C 1011.1 hPa WSW 9.7 km/h 29 km/h 70% 0 mm
10:29 20.8 °C 15.1 °C 1011.1 hPa WSW 11.3 km/h 29 km/h 70% 0 mm
10:34 21.1 °C 14.9 °C 1011.1 hPa WSW 19.3 km/h 22.5 km/h 68% 0 mm
10:39 20.8 °C 15.1 °C 1011.1 hPa West 8 km/h 35.4 km/h 70% 0 mm
10:44 21.2 °C 15.6 °C 1010.7 hPa West 9.7 km/h 17.7 km/h 70% 0 mm
10:49 21.3 °C 15.1 °C 1010.7 hPa WSW 16.1 km/h 30.6 km/h 68% 0 mm
10:54 21.1 °C 15.2 °C 1010.7 hPa WSW 12.9 km/h 30.6 km/h 69% 0 mm
10:59 21.3 °C 15.8 °C 1011.1 hPa WSW 12.9 km/h 30.6 km/h 71% 0 mm
11:04 21.4 °C 15.7 °C 1011.1 hPa WSW 11.3 km/h 29 km/h 70% 0 mm
11:09 21.6 °C 15.9 °C 1011.1 hPa WSW 12.9 km/h 29 km/h 70% 0 mm
11:14 20.8 °C 15.2 °C 1011.1 hPa West 14.5 km/h 25.7 km/h 70% 0 mm
11:19 20.3 °C 15.3 °C 1011.1 hPa WSW 20.9 km/h 27.4 km/h 73% 0 mm
11:24 20.1 °C 15.3 °C 1011.1 hPa WSW 12.9 km/h 27.4 km/h 74% 0 mm
11:29 20.1 °C 15.1 °C 1011.1 hPa WSW 14.5 km/h 27.4 km/h 73% 0 mm
11:34 20.2 °C 15.4 °C 1011.1 hPa WSW 14.5 km/h 30.6 km/h 74% 0 mm
11:39 20 °C 15.4 °C 1011.1 hPa WSW 14.5 km/h 32.2 km/h 75% 0 mm
11:44 20.7 °C 15.4 °C 1011.4 hPa WSW 19.3 km/h 35.4 km/h 72% 0 mm
11:49 21.1 °C 15.4 °C 1011.4 hPa WSW 19.3 km/h 30.6 km/h 70% 0 mm
11:54 21 °C 15.1 °C 1011.1 hPa West 22.5 km/h 32.2 km/h 69% 0 mm
11:59 20.8 °C 15.6 °C 1011.4 hPa SSW 16.1 km/h 35.4 km/h 72% 0 mm
12:04 21.2 °C 15.3 °C 1011.4 hPa WSW 16.1 km/h 32.2 km/h 69% 0 mm
12:09 21.5 °C 15.8 °C 1011.1 hPa WSW 3.2 km/h 32.2 km/h 70% 0 mm
12:14 21.6 °C 15.9 °C 1011.4 hPa South 19.3 km/h 35.4 km/h 70% 0 mm
12:19 21.5 °C 16 °C 1011.4 hPa SW 16.1 km/h 35.4 km/h 71% 0 mm
12:24 21 °C 15.8 °C 1011.1 hPa SW 17.7 km/h 35.4 km/h 72% 0 mm
12:29 21.7 °C 15.7 °C 1011.4 hPa SW 16.1 km/h 35.4 km/h 69% 0 mm
12:34 21.3 °C 15.8 °C 1011.4 hPa WSW 16.1 km/h 35.4 km/h 71% 0 mm
12:39 21.5 °C 15.8 °C 1011.4 hPa NW 12.9 km/h 25.7 km/h 70% 0 mm
12:44 21.2 °C 15.8 °C 1011.1 hPa WSW 20.9 km/h 29 km/h 71% 0 mm
12:49 21.4 °C 15.7 °C 1011.1 hPa SW 14.5 km/h 29 km/h 70% 0 mm
12:54 21.3 °C 15.8 °C 1011.1 hPa West 17.7 km/h 29 km/h 71% 0 mm
12:59 21.5 °C 15.6 °C 1011.1 hPa WSW 12.9 km/h 30.6 km/h 69% 0 mm
13:04 21.6 °C 15.8 °C 1011.1 hPa SW 22.5 km/h 30.6 km/h 70% 0 mm
13:09 21.4 °C 15.7 °C 1011.1 hPa SW 17.7 km/h 35.4 km/h 70% 0 mm
13:14 21.7 °C 15.7 °C 1011.1 hPa WSW 17.7 km/h 37 km/h 69% 0 mm
13:19 21.6 °C 15.6 °C 1011.1 hPa WSW 16.1 km/h 38.6 km/h 69% 0 mm
13:24 21.9 °C 15.5 °C 1011.1 hPa WSW 17.7 km/h 38.6 km/h 67% 0 mm
13:29 21.8 °C 15.4 °C 1011.1 hPa SW 17.7 km/h 37 km/h 67% 0 mm
13:34 22.1 °C 15.7 °C 1011.1 hPa SW 16.1 km/h 40.2 km/h 67% 0 mm
13:39 21.6 °C 15.2 °C 1011.1 hPa SW 14.5 km/h 38.6 km/h 67% 0 mm
13:44 21.6 °C 15.6 °C 1011.1 hPa SW 19.3 km/h 38.6 km/h 69% 0 mm
13:49 21.5 °C 15.6 °C 1011.1 hPa SW 17.7 km/h 40.2 km/h 69% 0 mm
13:54 21.6 °C 14.9 °C 1011.4 hPa SW 17.7 km/h 40.2 km/h 66% 0 mm
13:59 21.4 °C 15 °C 1011.4 hPa SW 29 km/h 40.2 km/h 67% 0 mm
14:04 21.3 °C 15.2 °C 1011.4 hPa WSW 19.3 km/h 41.8 km/h 68% 0 mm
14:09 21.4 °C 15.1 °C 1011.4 hPa SW 19.3 km/h 40.2 km/h 67% 0 mm
14:14 21.4 °C 15.1 °C 1011.1 hPa WSW 19.3 km/h 40.2 km/h 67% 0 mm
14:19 21.3 °C 14.9 °C 1011.4 hPa WSW 20.9 km/h 33.8 km/h 67% 0 mm
14:24 21.3 °C 15.3 °C 1011.4 hPa SSE 16.1 km/h 37 km/h 69% 0 mm
14:29 21.6 °C 15.6 °C 1011.4 hPa WSW 17.7 km/h 37 km/h 69% 0 mm
14:34 21.6 °C 15.4 °C 1011.1 hPa West 22.5 km/h 33.8 km/h 68% 0 mm
14:39 21.6 °C 15.2 °C 1011.4 hPa SW 14.5 km/h 38.6 km/h 67% 0 mm
14:44 21.5 °C 15.1 °C 1011.4 hPa WSW 19.3 km/h 45.1 km/h 67% 0 mm
14:49 21.6 °C 15.2 °C 1011.4 hPa WSW 19.3 km/h 45.1 km/h 67% 0 mm
14:54 21.9 °C 15.2 °C 1011.4 hPa WSW 17.7 km/h 37 km/h 66% 0 mm
14:59 21.6 °C 15.2 °C 1011.4 hPa WSW 19.3 km/h 38.6 km/h 67% 0 mm
15:04 21.6 °C 15.4 °C 1011.4 hPa WSW 20.9 km/h 38.6 km/h 68% 0 mm
15:09 21.9 °C 15.6 °C 1011.7 hPa WSW 17.7 km/h 46.7 km/h 67% 0 mm
15:14 21.9 °C 15.5 °C 1011.7 hPa West 16.1 km/h 35.4 km/h 67% 0 mm
15:19 21.7 °C 15.3 °C 1011.4 hPa SW 27.4 km/h 35.4 km/h 67% 0 mm
15:24 21.9 °C 15.5 °C 1011.1 hPa WSW 14.5 km/h 33.8 km/h 67% 0 mm
15:29 22.3 °C 15.6 °C 1011.4 hPa SW 12.9 km/h 29 km/h 66% 0 mm
15:34 22 °C 15.6 °C 1011.7 hPa WSW 12.9 km/h 33.8 km/h 67% 0 mm
15:39 22 °C 15.8 °C 1011.7 hPa SW 14.5 km/h 35.4 km/h 68% 0 mm
15:44 21.9 °C 16.2 °C 1011.7 hPa WSW 17.7 km/h 35.4 km/h 70% 0 mm
15:49 21.6 °C 15.7 °C 1011.7 hPa WSW 19.3 km/h 40.2 km/h 69% 0 mm
15:54 21.3 °C 15.8 °C 1011.7 hPa SSE 14.5 km/h 29 km/h 71% 0 mm
15:59 20.9 °C 15.7 °C 1012.1 hPa West 24.1 km/h 33.8 km/h 72% 0 mm
16:04 20.7 °C 15.7 °C 1011.7 hPa WSW 17.7 km/h 35.4 km/h 73% 0 mm
16:09 20.3 °C 15.6 °C 1011.7 hPa WSW 17.7 km/h 35.4 km/h 74% 0 mm
16:14 20 °C 14.8 °C 1012.1 hPa WSW 16.1 km/h 35.4 km/h 72% 0 mm
16:19 19.7 °C 13.6 °C 1012.1 hPa WSW 14.5 km/h 32.2 km/h 68% 0 mm
16:24 20.1 °C 14.8 °C 1012.1 hPa WSW 12.9 km/h 33.8 km/h 72% 0 mm
16:29 20.8 °C 16.2 °C 1011.7 hPa WSW 11.3 km/h 35.4 km/h 75% 0 mm
16:34 20.8 °C 15.8 °C 1011.7 hPa West 12.9 km/h 29 km/h 73% 0 mm
16:39 21.3 °C 16.1 °C 1012.1 hPa SW 22.5 km/h 33.8 km/h 72% 0 mm
16:44 21.2 °C 15.7 °C 1011.7 hPa West 20.9 km/h 33.8 km/h 71% 0 mm
16:49 21.3 °C 16.3 °C 1011.7 hPa West 20.9 km/h 33.8 km/h 73% 0 mm
16:54 21.5 °C 16.2 °C 1011.7 hPa West 9.7 km/h 35.4 km/h 72% 0 mm
16:59 21.3 °C 15.8 °C 1011.7 hPa SW 19.3 km/h 30.6 km/h 71% 0 mm
17:04 21.3 °C 15.8 °C 1011.7 hPa West 27.4 km/h 37 km/h 71% 0 mm
17:09 21.3 °C 15.8 °C 1012.1 hPa WSW 17.7 km/h 37 km/h 71% 0 mm
17:14 21.3 °C 16 °C 1012.1 hPa WSW 16.1 km/h 33.8 km/h 72% 0 mm
17:19 21.4 °C 16.6 °C 1012.1 hPa WSW 14.5 km/h 33.8 km/h 74% 0 mm
17:24 21.4 °C 16.1 °C 1012.1 hPa WSW 12.9 km/h 29 km/h 72% 0 mm
17:29 21.3 °C 16 °C 1011.7 hPa SW 14.5 km/h 30.6 km/h 72% 0 mm
17:34 21.3 °C 16 °C 1011.7 hPa WSW 12.9 km/h 33.8 km/h 72% 0 mm
17:39 21.2 °C 15.5 °C 1011.7 hPa SW 17.7 km/h 43.5 km/h 70% 0 mm
17:44 21.1 °C 15.7 °C 1011.7 hPa WNW 11.3 km/h 30.6 km/h 71% 0 mm
17:49 21.2 °C 15.5 °C 1011.7 hPa WSW 20.9 km/h 29 km/h 70% 0 mm
17:54 21.2 °C 15.8 °C 1011.7 hPa SW 8 km/h 37 km/h 71% 0 mm
17:59 21.4 °C 15.3 °C 1011.7 hPa WSW 12.9 km/h 25.7 km/h 68% 0 mm
18:04 21.4 °C 14.8 °C 1011.7 hPa WSW 12.9 km/h 29 km/h 66% 0 mm
18:09 21.2 °C 14.8 °C 1011.7 hPa WSW 14.5 km/h 32.2 km/h 67% 0 mm
18:14 21.1 °C 14.7 °C 1011.7 hPa WSW 16.1 km/h 32.2 km/h 67% 0 mm
18:19 21 °C 14.6 °C 1011.7 hPa SW 17.7 km/h 32.2 km/h 67% 0 mm
18:24 20.9 °C 14.6 °C 1011.7 hPa SW 14.5 km/h 35.4 km/h 67% 0 mm
18:29 21 °C 14.6 °C 1011.7 hPa SSW 14.5 km/h 29 km/h 67% 0 mm
18:34 21 °C 14.6 °C 1011.7 hPa SW 14.5 km/h 29 km/h 67% 0 mm
18:39 20.9 °C 14.6 °C 1011.7 hPa WSW 8 km/h 30.6 km/h 67% 0 mm
18:44 21.1 °C 14.9 °C 1011.7 hPa SW 11.3 km/h 25.7 km/h 68% 0 mm
18:49 20.9 °C 14.8 °C 1011.7 hPa SW 20.9 km/h 27.4 km/h 68% 0 mm
18:54 20.8 °C 14.7 °C 1012.1 hPa SSW 16.1 km/h 27.4 km/h 68% 0 mm
18:59 20.8 °C 14.7 °C 1012.1 hPa WSW 11.3 km/h 27.4 km/h 68% 0 mm
19:04 20.8 °C 14.7 °C 1012.1 hPa SW 14.5 km/h 29 km/h 68% 0 mm
19:09 20.7 °C 14.3 °C 1012.1 hPa SW 30.6 km/h 30.6 km/h 67% 0 mm
19:14 20.6 °C 14.2 °C 1012.1 hPa SW 14.5 km/h 32.2 km/h 67% 0 mm
19:19 20.6 °C 14.2 °C 1012.1 hPa SSE 6.4 km/h 24.1 km/h 67% 0 mm
19:24 20.6 °C 14 °C 1012.1 hPa SW 17.7 km/h 29 km/h 66% 0 mm
19:29 20.6 °C 13.7 °C 1012.1 hPa WSW 14.5 km/h 29 km/h 65% 0 mm
19:34 20.5 °C 13.7 °C 1012.1 hPa SW 12.9 km/h 27.4 km/h 65% 0 mm
19:39 20.6 °C 13.7 °C 1012.1 hPa West 17.7 km/h 19.3 km/h 65% 0 mm
19:44 20.6 °C 13.5 °C 1012.1 hPa West 12.9 km/h 25.7 km/h 64% 0 mm
19:49 20.4 °C 13.3 °C 1011.7 hPa West 16.1 km/h 22.5 km/h 64% 0 mm
19:54 20.3 °C 13.5 °C 1012.1 hPa SSW 11.3 km/h 17.7 km/h 65% 0 mm
19:59 20.2 °C 13.4 °C 1012.1 hPa WSW 9.7 km/h 17.7 km/h 65% 0 mm
20:04 20.1 °C 13.3 °C 1011.7 hPa WSW 9.7 km/h 24.1 km/h 65% 0 mm
20:09 20.1 °C 13.3 °C 1011.7 hPa SSW 6.4 km/h 19.3 km/h 65% 0 mm
20:14 20.1 °C 13.3 °C 1011.7 hPa SW 4.8 km/h 17.7 km/h 65% 0 mm
20:19 20 °C 13.2 °C 1011.7 hPa SSW 3.2 km/h 14.5 km/h 65% 0 mm
20:24 19.9 °C 12.9 °C 1011.7 hPa SSW 8 km/h 17.7 km/h 64% 0 mm
20:29 19.9 °C 12.9 °C 1011.4 hPa SW 8 km/h 17.7 km/h 64% 0 mm
20:34 19.8 °C 12.8 °C 1011.4 hPa SW 6.4 km/h 16.1 km/h 64% 0 mm
20:39 19.8 °C 13 °C 1011.4 hPa SW 6.4 km/h 16.1 km/h 65% 0 mm
20:44 19.8 °C 13 °C 1011.4 hPa SW 6.4 km/h 16.1 km/h 65% 0 mm
20:49 19.7 °C 13.1 °C 1011.4 hPa SSW 3.2 km/h 11.3 km/h 66% 0 mm
20:54 19.7 °C 13.4 °C 1011.7 hPa SW 4.8 km/h 11.3 km/h 67% 0 mm
20:59 19.7 °C 13.4 °C 1011.7 hPa WSW 8 km/h 14.5 km/h 67% 0 mm
21:04 19.8 °C 13.4 °C 1011.7 hPa SSW 8 km/h 11.3 km/h 67% 0 mm
21:09 19.8 °C 13.5 °C 1011.7 hPa South 4.8 km/h 16.1 km/h 67% 0 mm
21:14 19.8 °C 13.5 °C 1011.7 hPa South 6.4 km/h 11.3 km/h 67% 0 mm
21:19 19.8 °C 13.3 °C 1011.4 hPa SW 8 km/h 11.3 km/h 66% 0 mm
21:24 19.9 °C 13.4 °C 1011.4 hPa SW 6.4 km/h 12.9 km/h 66% 0 mm
21:29 19.9 °C 13.2 °C 1011.7 hPa WSW 4.8 km/h 12.9 km/h 65% 0 mm
21:34 20.1 °C 13.1 °C 1011.7 hPa WSW 6.4 km/h 16.1 km/h 64% 0 mm
21:39 20.1 °C 13.1 °C 1011.7 hPa WSW 8 km/h 16.1 km/h 64% 0 mm
21:44 20.2 °C 13.4 °C 1011.7 hPa WSW 3.2 km/h 16.1 km/h 65% 0 mm
21:49 20.2 °C 13.6 °C 1012.1 hPa NW 8 km/h 14.5 km/h 66% 0 mm
21:54 20.1 °C 13.6 °C 1012.4 hPa West 8 km/h 17.7 km/h 66% 0 mm
21:59 19.2 °C 12.9 °C 1012.8 hPa NW 9.7 km/h 20.9 km/h 67% 0 mm
22:04 17.9 °C 12.6 °C 1012.8 hPa North 6.4 km/h 16.1 km/h 71% 0 mm
22:09 17.1 °C 12.4 °C 1013.1 hPa West 8 km/h 24.1 km/h 74% 0 mm
22:14 16.7 °C 12.4 °C 1012.8 hPa WNW 4.8 km/h 12.9 km/h 76% 0 mm
22:19 16.4 °C 12.4 °C 1012.8 hPa West 4.8 km/h 14.5 km/h 77% 0 mm
22:24 16.3 °C 12.5 °C 1012.8 hPa NNW 4.8 km/h 14.5 km/h 78% 0 mm
22:29 16.2 °C 12.4 °C 1013.1 hPa NW 4.8 km/h 9.7 km/h 78% 0 mm
22:34 16.3 °C 12.4 °C 1013.1 hPa NW 4.8 km/h 12.9 km/h 78% 0 mm
22:39 16.3 °C 12.4 °C 1013.1 hPa NW 4.8 km/h 12.9 km/h 78% 0 mm
22:44 16.2 °C 12.6 °C 1013.1 hPa NW 4.8 km/h 9.7 km/h 79% 0 mm
22:49 16.1 °C 12.7 °C 1013.4 hPa West 4.8 km/h 9.7 km/h 80% 0 mm
22:54 16 °C 12.9 °C 1013.4 hPa WNW 4.8 km/h 9.7 km/h 82% 0 mm
22:59 15.9 °C 12.8 °C 1013.4 hPa West 1.6 km/h 9.7 km/h 82% 0 mm
23:04 15.8 °C 12.9 °C 1013.4 hPa Calm   4.8 km/h 83% 0 mm
23:09 15.7 °C 13 °C 1013.1 hPa SSE 1.6 km/h 6.4 km/h 84% 0 mm
23:14 15.7 °C 13 °C 1013.4 hPa SW 1.6 km/h 6.4 km/h 84% 0.25 mm
23:19 15.7 °C 13.2 °C 1012.8 hPa East 8 km/h 9.7 km/h 85% 0.51 mm
23:24 15.6 °C 13.1 °C 1012.8 hPa South 1.6 km/h 9.7 km/h 85% 0.51 mm
23:29 15.6 °C 13.3 °C 1013.1 hPa South 1.6 km/h 8 km/h 86% 0.51 mm
23:34 15.6 °C 13.3 °C 1012.8 hPa South 3.2 km/h 8 km/h 86% 0.51 mm
23:39 15.7 °C 13.3 °C 1012.8 hPa South 1.6 km/h 8 km/h 86% 0.51 mm
23:44 15.7 °C 13.3 °C 1012.4 hPa SSE 1.6 km/h 4.8 km/h 86% 0.76 mm
23:49 15.7 °C 13.6 °C 1012.4 hPa SSE 3.2 km/h 6.4 km/h 87% 0.76 mm
23:54 15.7 °C 13.6 °C 1012.4 hPa South 1.6 km/h 4.8 km/h 87% 0.76 mm
23:59 15.7 °C 13.6 °C 1012.4 hPa South 1.6 km/h 4.8 km/h 87% 0.76 mm
Buffalo, New York, USA
Compliments of Weather Underground - 2.5 mb